Content
SEND FEEDBACK

Daily
Averages
Monthly
Summary
United States of America

CHESTERFIELD, MISSOURI


Home > North America > United States > Missouri
Elevation: 170 meters     Latitude: 38 41N     Longitude: 090 31W

WEATHER
 
SELECT A DAY
Number of Records: 205,839;   Date Range: 1/1/95 - 9/30/14
 
SHARE

PRINT THIS DATA

[ ← Previous Day ]
WEATHER ALMANAC - 20 FEBRUARY, 2013
[ Next Day → ]
[ °F ]   °C
Weather ElementAverageHighLow
Temperature-5.2 °C-3.3 °C (2:51 pm)-7.8 °C (5:51 am)
Dewpoint-12.6 °C-11.1 °C (9:51 pm)-13.9 °C (2:51 am)
Humidity57.4 %68 % (11:51 pm)49 % (2:51 pm)
Barometer1029.1 hPa1031.5 hPa (10:51 am)1027.4 hPa (3:51 am)
Wind Speed10.3 km/h14.8 km/h (4:51 pm)
Weather ElementAverage
Visibility16.1 km
Wind DirectionSSE (141.7 °)

Weather ElementTotal
Precipitation---
Heating Degree Days23.9 (Base 18.3)
Averaged from 23 records on 20 February, 2013
WEATHER CONDITIONS BREAKOUT
WIND DIRECTION BREAKOUT
WEATHER BY HOUR - 20 FEBRUARY, 2013
[ °F ]   °C
Local TimeTemperatureDewpointHumidityBarometerVisibilityWind DirectionWind SpeedGust SpeedPrecipitationEventsConditions
1:51 AM-5.6 °C-12.8 °C58 %1028.1 hPa16.1 kmWNW (300°)13 km/hPartly Cloudy
2:51 AM-5.6 °C-13.9 °C53 %1027.8 hPa16.1 kmNW (310°)13 km/hScattered Clouds
3:51 AM-6.1 °C-13.3 °C57 %1027.4 hPa16.1 kmNorth (10°)11.1 km/hScattered Clouds
4:51 AM-7.2 °C-13.9 °C59 %1028.1 hPa16.1 kmNNW (340°)11.1 km/hPartly Cloudy
5:51 AM-7.8 °C-13.3 °C65 %1029.1 hPa16.1 kmNNW (340°)9.3 km/hPartly Cloudy
6:51 AM-7.8 °C-13.3 °C65 %1029.5 hPa16.1 kmNorth (10°)11.1 km/hMostly Cloudy
7:51 AM-7.2 °C-13.3 °C62 %1030.5 hPa16.1 kmNNW (330°)7.4 km/hMostly Cloudy
8:51 AM-6.7 °C-13.3 °C60 %1031.2 hPa16.1 kmNW (320°)9.3 km/hMostly Cloudy
9:51 AM-5.6 °C-13.3 °C55 %1031.2 hPa16.1 kmNW (320°)9.3 km/hMostly Cloudy
10:51 AM-5.6 °C-12.8 °C58 %1031.5 hPa16.1 kmNorth (10°)9.3 km/hOvercast
11:51 AM-4.4 °C-12.2 °C55 %1031.2 hPa16.1 kmNNW (340°)13 km/hOvercast
12:51 PM-4.4 °C-11.7 °C57 %1030.5 hPa16.1 kmVariable9.3 km/hOvercast
1:51 PM-3.9 °C-11.7 °C55 %1029.8 hPa16.1 kmCalmOvercast
2:51 PM-3.3 °C-12.8 °C49 %1028.8 hPa16.1 kmNNE (30°)9.3 km/hOvercast
3:51 PM-3.3 °C-12.8 °C49 %1028.4 hPa16.1 kmNE (50°)11.1 km/hMostly Cloudy
4:51 PM-3.3 °C-12.8 °C49 %1028.1 hPa16.1 kmNE (50°)14.8 km/hMostly Cloudy
5:51 PM-3.3 °C-12.2 °C51 %1028.1 hPa16.1 kmENE (60°)9.3 km/hMostly Cloudy
6:51 PM-3.9 °C-12.2 °C53 %1027.8 hPa16.1 kmENE (70°)11.1 km/hMostly Cloudy
7:51 PM-4.4 °C-11.7 °C57 %1028.1 hPa16.1 kmEast (90°)13 km/hScattered Clouds
8:51 PM-4.4 °C-11.7 °C57 %1028.4 hPa16.1 kmENE (60°)9.3 km/hScattered Clouds
9:51 PM-5 °C-11.1 °C63 %1028.1 hPa16.1 kmENE (70°)11.1 km/hMostly Cloudy
10:51 PM-5.6 °C-11.1 °C66 %1028.4 hPa16.1 kmENE (60°)11.1 km/hScattered Clouds
11:51 PM-6.1 °C-11.1 °C68 %1028.1 hPa16.1 kmEast (90°)9.3 km/hScattered Clouds
Hourly data recorded from KSTL, located 0 kilometers away from Chesterfield, Missouri







STORIES FROM OUR PARTNERS